owner,sensor,date,latitude,longitude,vertical_datum,mass_concentration_of_oxygen_in_sea_water,qcFlag 
DISL,ioos:station:DISL:BSCA:1,2011-06-01T00:00:00Z,30.3288,-87.8293,1.717,7.04,1111122 
DISL,ioos:station:DISL:BSCA:1,2011-06-01T00:30:00Z,30.3288,-87.8293,1.707,6.82,1111122 
DISL,ioos:station:DISL:BSCA:1,2011-06-01T01:00:00Z,30.3288,-87.8293,1.687,6.93,1111122 
DISL,ioos:station:DISL:BSCA:1,2011-06-01T01:30:00Z,30.3288,-87.8293,1.681,7.11,1111122 
DISL,ioos:station:DISL:BSCA:1,2011-06-01T02:00:00Z,30.3288,-87.8293,1.66,6.62,1111122 
DISL,ioos:station:DISL:BSCA:1,2011-06-01T02:30:00Z,30.3288,-87.8293,1.648,6.68,1111122 
DISL,ioos:station:DISL:BSCA:1,2011-06-01T03:00:00Z,30.3288,-87.8293,1.654,6.23,1111122 
DISL,ioos:station:DISL:BSCA:1,2011-06-01T03:30:00Z,30.3288,-87.8293,1.655,5.96,1111122 
DISL,ioos:station:DISL:BSCA:1,2011-06-01T04:00:00Z,30.3288,-87.8293,1.654,5.88,1111122 
DISL,ioos:station:DISL:BSCA:1,2011-06-01T04:30:00Z,30.3288,-87.8293,1.67,5.13,1111122 
DISL,ioos:station:DISL:BSCA:1,2011-06-01T05:00:00Z,30.3288,-87.8293,1.692,5.7,1111122 
DISL,ioos:station:DISL:BSCA:1,2011-06-01T05:30:00Z,30.3288,-87.8293,1.714,5.36,1111122 
DISL,ioos:station:DISL:BSCA:1,2011-06-01T06:00:00Z,30.3288,-87.8293,1.74,4.77,1111122 
DISL,ioos:station:DISL:BSCA:1,2011-06-01T06:30:00Z,30.3288,-87.8293,1.77,5.32,1111122 
DISL,ioos:station:DISL:BSCA:1,2011-06-01T07:00:00Z,30.3288,-87.8293,1.781,4.42,1111122 
DISL,ioos:station:DISL:BSCA:1,2011-06-01T07:30:00Z,30.3288,-87.8293,1.809,4.24,1111122 
DISL,ioos:station:DISL:BSCA:1,2011-06-01T08:00:00Z,30.3288,-87.8293,1.826,4.6,1111122 
DISL,ioos:station:DISL:BSCA:1,2011-06-01T08:30:00Z,30.3288,-87.8293,1.858,5.3,1111122 
DISL,ioos:station:DISL:BSCA:1,2011-06-01T09:00:00Z,30.3288,-87.8293,1.884,4.93,1111122 
DISL,ioos:station:DISL:BSCA:1,2011-06-01T09:30:00Z,30.3288,-87.8293,1.91,4.6,1111122 
DISL,ioos:station:DISL:BSCA:1,2011-06-01T10:00:00Z,30.3288,-87.8293,1.933,4.48,1111122 
DISL,ioos:station:DISL:BSCA:1,2011-06-01T10:30:00Z,30.3288,-87.8293,1.956,4.22,1111122 
DISL,ioos:station:DISL:BSCA:1,2011-06-01T11:00:00Z,30.3288,-87.8293,1.994,4.25,1111122 
DISL,ioos:station:DISL:BSCA:1,2011-06-01T11:30:00Z,30.3288,-87.8293,2.019,3.98,1111122 
DISL,ioos:station:DISL:BSCA:1,2011-06-01T12:00:00Z,30.3288,-87.8293,2.053,4.01,1111122 
DISL,ioos:station:DISL:BSCA:1,2011-06-01T12:30:00Z,30.3288,-87.8293,2.091,3.71,1111122 
DISL,ioos:station:DISL:BSCA:1,2011-06-01T13:00:00Z,30.3288,-87.8293,2.118,4.65,1111122 
DISL,ioos:station:DISL:BSCA:1,2011-06-01T13:30:00Z,30.3288,-87.8293,2.147,5.07,1111122 
DISL,ioos:station:DISL:BSCA:1,2011-06-01T14:00:00Z,30.3288,-87.8293,2.175,4.61,1111122 
DISL,ioos:station:DISL:BSCA:1,2011-06-01T14:30:00Z,30.3288,-87.8293,2.198,5.01,1111122 
DISL,ioos:station:DISL:BSCA:1,2011-06-01T15:00:00Z,30.3288,-87.8293,2.199,4.79,1111122 
DISL,ioos:station:DISL:BSCA:1,2011-06-01T15:30:00Z,30.3288,-87.8293,2.192,4.95,1111122 
DISL,ioos:station:DISL:BSCA:1,2011-06-01T16:00:00Z,30.3288,-87.8293,2.176,5.07,1111122 
DISL,ioos:station:DISL:BSCA:1,2011-06-01T16:30:00Z,30.3288,-87.8293,2.191,4.97,1111122 
DISL,ioos:station:DISL:BSCA:1,2011-06-01T17:00:00Z,30.3288,-87.8293,2.168,5.08,1111122 
DISL,ioos:station:DISL:BSCA:1,2011-06-01T17:30:00Z,30.3288,-87.8293,2.143,4.69,1111122 
DISL,ioos:station:DISL:BSCA:1,2011-06-01T18:00:00Z,30.3288,-87.8293,2.131,4.42,1111122 
DISL,ioos:station:DISL:BSCA:1,2011-06-01T18:30:00Z,30.3288,-87.8293,2.094,4.89,1111122 
DISL,ioos:station:DISL:BSCA:1,2011-06-01T19:00:00Z,30.3288,-87.8293,2.064,4.67,1111122 
DISL,ioos:station:DISL:BSCA:1,2011-06-01T19:30:00Z,30.3288,-87.8293,2.032,4.56,1111122 
DISL,ioos:station:DISL:BSCA:1,2011-06-01T20:00:00Z,30.3288,-87.8293,1.99,4.89,1111122 
DISL,ioos:station:DISL:BSCA:1,2011-06-01T20:30:00Z,30.3288,-87.8293,1.957,5.31,1111122 
DISL,ioos:station:DISL:BSCA:1,2011-06-01T21:00:00Z,30.3288,-87.8293,1.92,5.71,1111122 
DISL,ioos:station:DISL:BSCA:1,2011-06-01T21:30:00Z,30.3288,-87.8293,1.864,5.51,1111122 
DISL,ioos:station:DISL:BSCA:1,2011-06-01T22:00:00Z,30.3288,-87.8293,1.826,5.46,1111122 
DISL,ioos:station:DISL:BSCA:1,2011-06-01T22:30:00Z,30.3288,-87.8293,1.78,6.0,1111122 
DISL,ioos:station:DISL:BSCA:1,2011-06-01T23:00:00Z,30.3288,-87.8293,1.745,6.14,1111122 
DISL,ioos:station:DISL:BSCA:1,2011-06-01T23:30:00Z,30.3288,-87.8293,1.702,6.1,1111122 
DISL,ioos:station:DISL:BSCA:1,2011-06-02T00:00:00Z,30.3288,-87.8293,1.671,5.98,1111122 
DISL,ioos:station:DISL:BSCA:1,2011-06-02T00:30:00Z,30.3288,-87.8293,1.653,5.83,1111122 
DISL,ioos:station:DISL:BSCA:1,2011-06-02T01:00:00Z,30.3288,-87.8293,1.628,5.83,1111122 
DISL,ioos:station:DISL:BSCA:1,2011-06-02T01:30:00Z,30.3288,-87.8293,1.599,5.93,1111122 
DISL,ioos:station:DISL:BSCA:1,2011-06-02T02:00:00Z,30.3288,-87.8293,1.585,6.05,1111122 
DISL,ioos:station:DISL:BSCA:1,2011-06-02T02:30:00Z,30.3288,-87.8293,1.564,6.07,1111122 
DISL,ioos:station:DISL:BSCA:1,2011-06-02T03:00:00Z,30.3288,-87.8293,1.547,6.05,1111122 
DISL,ioos:station:DISL:BSCA:1,2011-06-02T03:30:00Z,30.3288,-87.8293,1.538,5.9,1111122 
DISL,ioos:station:DISL:BSCA:1,2011-06-02T04:00:00Z,30.3288,-87.8293,1.552,4.93,1111122 
DISL,ioos:station:DISL:BSCA:1,2011-06-02T04:30:00Z,30.3288,-87.8293,1.568,4.63,1111122 
DISL,ioos:station:DISL:BSCA:1,2011-06-02T05:00:00Z,30.3288,-87.8293,1.59,5.37,1111122 
DISL,ioos:station:DISL:BSCA:1,2011-06-02T05:30:00Z,30.3288,-87.8293,1.606,5.64,1111122 
DISL,ioos:station:DISL:BSCA:1,2011-06-02T06:00:00Z,30.3288,-87.8293,1.64,5.46,1111122 
DISL,ioos:station:DISL:BSCA:1,2011-06-02T06:30:00Z,30.3288,-87.8293,1.645,5.63,1111122 
DISL,ioos:station:DISL:BSCA:1,2011-06-02T07:00:00Z,30.3288,-87.8293,1.682,5.8,1111122 
DISL,ioos:station:DISL:BSCA:1,2011-06-02T07:30:00Z,30.3288,-87.8293,1.698,5.72,1111122 
DISL,ioos:station:DISL:BSCA:1,2011-06-02T08:00:00Z,30.3288,-87.8293,1.703,5.79,1111122 
DISL,ioos:station:DISL:BSCA:1,2011-06-02T08:30:00Z,30.3288,-87.8293,1.69,5.82,1111122 
DISL,ioos:station:DISL:BSCA:1,2011-06-02T09:00:00Z,30.3288,-87.8293,1.712,6.01,1111122 
DISL,ioos:station:DISL:BSCA:1,2011-06-02T09:30:00Z,30.3288,-87.8293,1.719,5.8,1111122 
DISL,ioos:station:DISL:BSCA:1,2011-06-02T10:00:00Z,30.3288,-87.8293,1.725,5.8,1111122 
DISL,ioos:station:DISL:BSCA:1,2011-06-02T10:30:00Z,30.3288,-87.8293,1.777,5.5,1111122 
DISL,ioos:station:DISL:BSCA:1,2011-06-02T11:00:00Z,30.3288,-87.8293,1.82,5.34,1111122 
DISL,ioos:station:DISL:BSCA:1,2011-06-02T11:30:00Z,30.3288,-87.8293,1.92,5.02,1111122 
DISL,ioos:station:DISL:BSCA:1,2011-06-02T12:00:00Z,30.3288,-87.8293,1.976,4.9,1111122 
DISL,ioos:station:DISL:BSCA:1,2011-06-02T12:30:00Z,30.3288,-87.8293,2.042,5.02,1111122 
DISL,ioos:station:DISL:BSCA:1,2011-06-02T13:00:00Z,30.3288,-87.8293,2.11,4.72,1111122 
DISL,ioos:station:DISL:BSCA:1,2011-06-02T13:30:00Z,30.3288,-87.8293,2.159,4.54,1111122 
DISL,ioos:station:DISL:BSCA:1,2011-06-02T14:00:00Z,30.3288,-87.8293,2.197,4.6,1111122 
DISL,ioos:station:DISL:BSCA:1,2011-06-02T14:30:00Z,30.3288,-87.8293,2.216,4.02,1111122 
DISL,ioos:station:DISL:BSCA:1,2011-06-02T15:00:00Z,30.3288,-87.8293,2.227,3.84,1111122 
DISL,ioos:station:DISL:BSCA:1,2011-06-02T15:30:00Z,30.3288,-87.8293,2.235,4.0,1111122 
DISL,ioos:station:DISL:BSCA:1,2011-06-02T16:00:00Z,30.3288,-87.8293,2.24,4.18,1111122 
DISL,ioos:station:DISL:BSCA:1,2011-06-02T16:30:00Z,30.3288,-87.8293,2.243,4.26,1111122 
DISL,ioos:station:DISL:BSCA:1,2011-06-02T17:00:00Z,30.3288,-87.8293,2.236,4.29,1111122 
DISL,ioos:station:DISL:BSCA:1,2011-06-02T17:30:00Z,30.3288,-87.8293,2.219,4.91,1111122 
DISL,ioos:station:DISL:BSCA:1,2011-06-02T18:00:00Z,30.3288,-87.8293,2.192,5.32,1111122 
DISL,ioos:station:DISL:BSCA:1,2011-06-02T18:30:00Z,30.3288,-87.8293,2.16,5.64,1111122 
DISL,ioos:station:DISL:BSCA:1,2011-06-02T19:00:00Z,30.3288,-87.8293,2.112,5.81,1111122 
DISL,ioos:station:DISL:BSCA:1,2011-06-02T19:30:00Z,30.3288,-87.8293,2.065,6.11,1111122 
DISL,ioos:station:DISL:BSCA:1,2011-06-02T20:00:00Z,30.3288,-87.8293,2.026,6.22,1111122 
DISL,ioos:station:DISL:BSCA:1,2011-06-02T20:30:00Z,30.3288,-87.8293,1.977,6.14,1111122 
DISL,ioos:station:DISL:BSCA:1,2011-06-02T21:00:00Z,30.3288,-87.8293,1.943,6.31,1111122 
DISL,ioos:station:DISL:BSCA:1,2011-06-02T21:30:00Z,30.3288,-87.8293,1.918,6.23,1111122 
DISL,ioos:station:DISL:BSCA:1,2011-06-02T22:00:00Z,30.3288,-87.8293,1.885,6.29,1111122 
DISL,ioos:station:DISL:BSCA:1,2011-06-02T22:30:00Z,30.3288,-87.8293,1.862,6.22,1111122 
DISL,ioos:station:DISL:BSCA:1,2011-06-02T23:00:00Z,30.3288,-87.8293,1.829,6.04,1111122 
DISL,ioos:station:DISL:BSCA:1,2011-06-02T23:30:00Z,30.3288,-87.8293,1.786,5.93,1111122 
DISL,ioos:station:DISL:BSCA:1,2011-06-03T00:00:00Z,30.3288,-87.8293,1.761,6.24,1111122 
DISL,ioos:station:DISL:BSCA:1,2011-06-03T00:30:00Z,30.3288,-87.8293,1.725,6.32,1111122 
DISL,ioos:station:DISL:BSCA:1,2011-06-03T01:00:00Z,30.3288,-87.8293,1.712,5.99,1111122 
DISL,ioos:station:DISL:BSCA:1,2011-06-03T01:30:00Z,30.3288,-87.8293,1.701,5.61,1111122 
DISL,ioos:station:DISL:BSCA:1,2011-06-03T02:00:00Z,30.3288,-87.8293,1.697,5.13,1111122 
DISL,ioos:station:DISL:BSCA:1,2011-06-03T02:30:00Z,30.3288,-87.8293,1.699,4.94,1111122 
DISL,ioos:station:DISL:BSCA:1,2011-06-03T03:00:00Z,30.3288,-87.8293,1.693,5.05,1111122 
DISL,ioos:station:DISL:BSCA:1,2011-06-03T03:30:00Z,30.3288,-87.8293,1.683,5.46,1111122 
DISL,ioos:station:DISL:BSCA:1,2011-06-03T04:00:00Z,30.3288,-87.8293,1.674,5.54,1111122 
DISL,ioos:station:DISL:BSCA:1,2011-06-03T04:30:00Z,30.3288,-87.8293,1.663,5.64,1111122 
DISL,ioos:station:DISL:BSCA:1,2011-06-03T05:00:00Z,30.3288,-87.8293,1.663,5.58,1111122 
DISL,ioos:station:DISL:BSCA:1,2011-06-03T05:30:00Z,30.3288,-87.8293,1.676,5.31,1111122 
DISL,ioos:station:DISL:BSCA:1,2011-06-03T06:00:00Z,30.3288,-87.8293,1.699,4.76,1111122 
DISL,ioos:station:DISL:BSCA:1,2011-06-03T06:30:00Z,30.3288,-87.8293,1.728,4.25,1111122 
DISL,ioos:station:DISL:BSCA:1,2011-06-03T07:00:00Z,30.3288,-87.8293,1.761,3.52,1111122 
DISL,ioos:station:DISL:BSCA:1,2011-06-03T07:30:00Z,30.3288,-87.8293,1.784,3.46,1111122 
DISL,ioos:station:DISL:BSCA:1,2011-06-03T08:00:00Z,30.3288,-87.8293,1.818,3.15,1111122 
DISL,ioos:station:DISL:BSCA:1,2011-06-03T08:30:00Z,30.3288,-87.8293,1.836,3.13,1111122 
DISL,ioos:station:DISL:BSCA:1,2011-06-03T09:00:00Z,30.3288,-87.8293,1.862,3.17,1111122 
DISL,ioos:station:DISL:BSCA:1,2011-06-03T09:30:00Z,30.3288,-87.8293,1.884,4.03,1111122 
DISL,ioos:station:DISL:BSCA:1,2011-06-03T10:00:00Z,30.3288,-87.8293,1.914,3.28,1111122 
DISL,ioos:station:DISL:BSCA:1,2011-06-03T10:30:00Z,30.3288,-87.8293,1.94,3.56,1111122 
DISL,ioos:station:DISL:BSCA:1,2011-06-03T11:00:00Z,30.3288,-87.8293,1.972,3.42,1111122 
DISL,ioos:station:DISL:BSCA:1,2011-06-03T11:30:00Z,30.3288,-87.8293,2.008,3.97,1111122 
DISL,ioos:station:DISL:BSCA:1,2011-06-03T12:00:00Z,30.3288,-87.8293,2.042,3.72,1111122 
DISL,ioos:station:DISL:BSCA:1,2011-06-03T12:30:00Z,30.3288,-87.8293,2.076,2.89,1111122 
DISL,ioos:station:DISL:BSCA:1,2011-06-03T13:00:00Z,30.3288,-87.8293,2.106,3.8,1111122 
DISL,ioos:station:DISL:BSCA:1,2011-06-03T13:30:00Z,30.3288,-87.8293,2.132,3.28,1111122 
DISL,ioos:station:DISL:BSCA:1,2011-06-03T14:00:00Z,30.3288,-87.8293,2.167,3.62,1111122 
DISL,ioos:station:DISL:BSCA:1,2011-06-03T14:30:00Z,30.3288,-87.8293,2.191,3.18,1111122 
DISL,ioos:station:DISL:BSCA:1,2011-06-03T15:00:00Z,30.3288,-87.8293,2.223,3.56,1111122 
DISL,ioos:station:DISL:BSCA:1,2011-06-03T15:30:00Z,30.3288,-87.8293,2.248,3.39,1111122 
DISL,ioos:station:DISL:BSCA:1,2011-06-03T16:00:00Z,30.3288,-87.8293,2.258,2.95,1111122 
DISL,ioos:station:DISL:BSCA:1,2011-06-03T16:30:00Z,30.3288,-87.8293,2.268,3.48,1111122 
DISL,ioos:station:DISL:BSCA:1,2011-06-03T17:00:00Z,30.3288,-87.8293,2.265,4.34,1111122 
DISL,ioos:station:DISL:BSCA:1,2011-06-03T17:30:00Z,30.3288,-87.8293,2.257,4.55,1111122 
DISL,ioos:station:DISL:BSCA:1,2011-06-03T18:00:00Z,30.3288,-87.8293,2.244,4.85,1111122 
DISL,ioos:station:DISL:BSCA:1,2011-06-03T18:30:00Z,30.3288,-87.8293,2.215,4.95,1111122 
DISL,ioos:station:DISL:BSCA:1,2011-06-03T19:00:00Z,30.3288,-87.8293,2.198,4.98,1111122 
DISL,ioos:station:DISL:BSCA:1,2011-06-03T19:30:00Z,30.3288,-87.8293,2.164,5.17,1111122 
DISL,ioos:station:DISL:BSCA:1,2011-06-03T20:00:00Z,30.3288,-87.8293,2.126,5.2,1111122 
DISL,ioos:station:DISL:BSCA:1,2011-06-03T20:30:00Z,30.3288,-87.8293,2.089,5.32,1111122 
DISL,ioos:station:DISL:BSCA:1,2011-06-03T21:00:00Z,30.3288,-87.8293,2.051,5.45,1111122 
DISL,ioos:station:DISL:BSCA:1,2011-06-03T21:30:00Z,30.3288,-87.8293,2.017,4.92,1111122 
DISL,ioos:station:DISL:BSCA:1,2011-06-03T22:00:00Z,30.3288,-87.8293,1.978,5.12,1111122 
DISL,ioos:station:DISL:BSCA:1,2011-06-03T22:30:00Z,30.3288,-87.8293,1.941,6.75,1111122 
DISL,ioos:station:DISL:BSCA:1,2011-06-03T23:00:00Z,30.3288,-87.8293,1.904,6.85,1111122 
DISL,ioos:station:DISL:BSCA:1,2011-06-03T23:30:00Z,30.3288,-87.8293,1.874,6.81,1111122 
DISL,ioos:station:DISL:BSCA:1,2011-06-04T00:00:00Z,30.3288,-87.8293,1.866,6.86,1111122 
DISL,ioos:station:DISL:BSCA:1,2011-06-04T00:30:00Z,30.3288,-87.8293,1.837,6.63,1111122 
DISL,ioos:station:DISL:BSCA:1,2011-06-04T01:00:00Z,30.3288,-87.8293,1.811,6.93,1111122 
DISL,ioos:station:DISL:BSCA:1,2011-06-04T01:30:00Z,30.3288,-87.8293,1.782,6.66,1111122 
DISL,ioos:station:DISL:BSCA:1,2011-06-04T02:00:00Z,30.3288,-87.8293,1.793,6.84,1111122 
DISL,ioos:station:DISL:BSCA:1,2011-06-04T02:30:00Z,30.3288,-87.8293,1.754,6.79,1111122 
DISL,ioos:station:DISL:BSCA:1,2011-06-04T03:00:00Z,30.3288,-87.8293,1.728,7.01,1111122 
DISL,ioos:station:DISL:BSCA:1,2011-06-04T03:30:00Z,30.3288,-87.8293,1.683,6.85,1111122 
DISL,ioos:station:DISL:BSCA:1,2011-06-04T04:00:00Z,30.3288,-87.8293,1.668,6.5,1111122 
DISL,ioos:station:DISL:BSCA:1,2011-06-04T04:30:00Z,30.3288,-87.8293,1.686,6.1,1111122 
DISL,ioos:station:DISL:BSCA:1,2011-06-04T05:00:00Z,30.3288,-87.8293,1.682,6.33,1111122 
DISL,ioos:station:DISL:BSCA:1,2011-06-04T05:30:00Z,30.3288,-87.8293,1.696,6.19,1111122 
DISL,ioos:station:DISL:BSCA:1,2011-06-04T06:00:00Z,30.3288,-87.8293,1.68,6.11,1111122 
DISL,ioos:station:DISL:BSCA:1,2011-06-04T06:30:00Z,30.3288,-87.8293,1.687,5.84,1111122 
DISL,ioos:station:DISL:BSCA:1,2011-06-04T07:00:00Z,30.3288,-87.8293,1.7,5.23,1111122 
DISL,ioos:station:DISL:BSCA:1,2011-06-04T07:30:00Z,30.3288,-87.8293,1.735,5.19,1111122 
DISL,ioos:station:DISL:BSCA:1,2011-06-04T08:00:00Z,30.3288,-87.8293,1.756,5.03,1111122 
DISL,ioos:station:DISL:BSCA:1,2011-06-04T08:30:00Z,30.3288,-87.8293,1.798,4.99,1111122 
DISL,ioos:station:DISL:BSCA:1,2011-06-04T09:00:00Z,30.3288,-87.8293,1.831,4.91,1111122 
DISL,ioos:station:DISL:BSCA:1,2011-06-04T09:30:00Z,30.3288,-87.8293,1.864,5.04,1111122 
DISL,ioos:station:DISL:BSCA:1,2011-06-04T10:00:00Z,30.3288,-87.8293,1.92,5.54,1111122 
DISL,ioos:station:DISL:BSCA:1,2011-06-04T10:30:00Z,30.3288,-87.8293,1.939,5.33,1111122 
DISL,ioos:station:DISL:BSCA:1,2011-06-04T11:00:00Z,30.3288,-87.8293,1.979,5.3,1111122 
DISL,ioos:station:DISL:BSCA:1,2011-06-04T11:30:00Z,30.3288,-87.8293,1.981,5.22,1111122 
DISL,ioos:station:DISL:BSCA:1,2011-06-04T12:00:00Z,30.3288,-87.8293,2.001,5.06,1111122 
DISL,ioos:station:DISL:BSCA:1,2011-06-04T12:30:00Z,30.3288,-87.8293,2.022,5.04,1111122 
DISL,ioos:station:DISL:BSCA:1,2011-06-04T13:00:00Z,30.3288,-87.8293,2.046,5.0,1111122 
DISL,ioos:station:DISL:BSCA:1,2011-06-04T13:30:00Z,30.3288,-87.8293,2.087,4.81,1111122 
DISL,ioos:station:DISL:BSCA:1,2011-06-04T14:00:00Z,30.3288,-87.8293,2.135,5.06,1111122 
DISL,ioos:station:DISL:BSCA:1,2011-06-04T14:30:00Z,30.3288,-87.8293,2.159,5.3,1111122 
DISL,ioos:station:DISL:BSCA:1,2011-06-04T15:00:00Z,30.3288,-87.8293,2.19,5.42,1111122 
DISL,ioos:station:DISL:BSCA:1,2011-06-04T15:30:00Z,30.3288,-87.8293,2.211,5.09,1111122 
DISL,ioos:station:DISL:BSCA:1,2011-06-04T16:00:00Z,30.3288,-87.8293,2.223,5.26,1111122 
DISL,ioos:station:DISL:BSCA:1,2011-06-04T16:30:00Z,30.3288,-87.8293,2.235,5.24,1111122 
DISL,ioos:station:DISL:BSCA:1,2011-06-04T17:00:00Z,30.3288,-87.8293,2.247,5.23,1111122 
DISL,ioos:station:DISL:BSCA:1,2011-06-04T17:30:00Z,30.3288,-87.8293,2.235,5.3,1111122 
DISL,ioos:station:DISL:BSCA:1,2011-06-04T18:00:00Z,30.3288,-87.8293,2.224,5.59,1111122 
DISL,ioos:station:DISL:BSCA:1,2011-06-04T18:30:00Z,30.3288,-87.8293,2.219,5.68,1111122 
DISL,ioos:station:DISL:BSCA:1,2011-06-04T19:00:00Z,30.3288,-87.8293,2.196,5.32,1111122 
DISL,ioos:station:DISL:BSCA:1,2011-06-04T19:30:00Z,30.3288,-87.8293,2.174,5.81,1111122 
DISL,ioos:station:DISL:BSCA:1,2011-06-04T20:00:00Z,30.3288,-87.8293,2.146,5.86,1111122 
DISL,ioos:station:DISL:BSCA:1,2011-06-04T20:30:00Z,30.3288,-87.8293,2.143,5.99,1111122 
DISL,ioos:station:DISL:BSCA:1,2011-06-04T21:00:00Z,30.3288,-87.8293,2.102,5.9,1111122 
DISL,ioos:station:DISL:BSCA:1,2011-06-04T21:30:00Z,30.3288,-87.8293,2.07,6.39,1111122 
DISL,ioos:station:DISL:BSCA:1,2011-06-04T22:00:00Z,30.3288,-87.8293,2.022,6.42,1111122 
DISL,ioos:station:DISL:BSCA:1,2011-06-04T22:30:00Z,30.3288,-87.8293,1.979,6.37,1111122 
DISL,ioos:station:DISL:BSCA:1,2011-06-04T23:00:00Z,30.3288,-87.8293,1.938,6.3,1111122 
DISL,ioos:station:DISL:BSCA:1,2011-06-04T23:30:00Z,30.3288,-87.8293,1.888,6.29,1111122 
DISL,ioos:station:DISL:BSCA:1,2011-06-05T00:00:00Z,30.3288,-87.8293,1.85,6.08,1111122 
DISL,ioos:station:DISL:BSCA:1,2011-06-05T00:30:00Z,30.3288,-87.8293,1.822,6.17,1111122 
DISL,ioos:station:DISL:BSCA:1,2011-06-05T01:00:00Z,30.3288,-87.8293,1.764,6.03,1111122 
DISL,ioos:station:DISL:BSCA:1,2011-06-05T01:30:00Z,30.3288,-87.8293,1.732,6.21,1111122 
DISL,ioos:station:DISL:BSCA:1,2011-06-05T02:00:00Z,30.3288,-87.8293,1.708,6.02,1111122 
DISL,ioos:station:DISL:BSCA:1,2011-06-05T02:30:00Z,30.3288,-87.8293,1.668,5.92,1111122 
DISL,ioos:station:DISL:BSCA:1,2011-06-05T03:00:00Z,30.3288,-87.8293,1.642,5.74,1111122 
DISL,ioos:station:DISL:BSCA:1,2011-06-05T03:30:00Z,30.3288,-87.8293,1.628,5.59,1111122 
DISL,ioos:station:DISL:BSCA:1,2011-06-05T04:00:00Z,30.3288,-87.8293,1.602,5.77,1111122 
DISL,ioos:station:DISL:BSCA:1,2011-06-05T04:30:00Z,30.3288,-87.8293,1.595,5.63,1111122 
DISL,ioos:station:DISL:BSCA:1,2011-06-05T05:00:00Z,30.3288,-87.8293,1.551,5.47,1111122 
DISL,ioos:station:DISL:BSCA:1,2011-06-05T05:30:00Z,30.3288,-87.8293,1.542,5.56,1111122 
DISL,ioos:station:DISL:BSCA:1,2011-06-05T06:00:00Z,30.3288,-87.8293,1.562,3.86,1111122 
DISL,ioos:station:DISL:BSCA:1,2011-06-05T06:30:00Z,30.3288,-87.8293,1.557,3.38,1111122 
DISL,ioos:station:DISL:BSCA:1,2011-06-05T07:00:00Z,30.3288,-87.8293,1.602,3.49,1111122 
DISL,ioos:station:DISL:BSCA:1,2011-06-05T07:30:00Z,30.3288,-87.8293,1.625,3.97,1111122 
DISL,ioos:station:DISL:BSCA:1,2011-06-05T08:00:00Z,30.3288,-87.8293,1.658,4.43,1111122 
DISL,ioos:station:DISL:BSCA:1,2011-06-05T08:30:00Z,30.3288,-87.8293,1.711,4.73,1111122 
DISL,ioos:station:DISL:BSCA:1,2011-06-05T09:00:00Z,30.3288,-87.8293,1.747,3.71,1111122 
DISL,ioos:station:DISL:BSCA:1,2011-06-05T09:30:00Z,30.3288,-87.8293,1.777,3.75,1111122 
DISL,ioos:station:DISL:BSCA:1,2011-06-05T10:00:00Z,30.3288,-87.8293,1.803,3.73,1111122 
DISL,ioos:station:DISL:BSCA:1,2011-06-05T10:30:00Z,30.3288,-87.8293,1.822,3.29,1111122 
DISL,ioos:station:DISL:BSCA:1,2011-06-05T11:00:00Z,30.3288,-87.8293,1.849,3.85,1111122 
DISL,ioos:station:DISL:BSCA:1,2011-06-05T11:30:00Z,30.3288,-87.8293,1.869,4.15,1111122 
DISL,ioos:station:DISL:BSCA:1,2011-06-05T12:00:00Z,30.3288,-87.8293,1.887,3.87,1111122 
DISL,ioos:station:DISL:BSCA:1,2011-06-05T12:30:00Z,30.3288,-87.8293,1.912,2.77,1111122 
DISL,ioos:station:DISL:BSCA:1,2011-06-05T13:00:00Z,30.3288,-87.8293,1.948,3.44,1111122 
DISL,ioos:station:DISL:BSCA:1,2011-06-05T13:30:00Z,30.3288,-87.8293,1.981,3.37,1111122 
DISL,ioos:station:DISL:BSCA:1,2011-06-05T14:00:00Z,30.3288,-87.8293,2.005,3.47,1111122 
DISL,ioos:station:DISL:BSCA:1,2011-06-05T14:30:00Z,30.3288,-87.8293,2.034,2.84,1111122 
DISL,ioos:station:DISL:BSCA:1,2011-06-05T15:00:00Z,30.3288,-87.8293,2.059,3.07,1111122 
DISL,ioos:station:DISL:BSCA:1,2011-06-05T15:30:00Z,30.3288,-87.8293,2.091,2.71,1111122 
DISL,ioos:station:DISL:BSCA:1,2011-06-05T16:00:00Z,30.3288,-87.8293,2.128,3.09,1111122 
DISL,ioos:station:DISL:BSCA:1,2011-06-05T16:30:00Z,30.3288,-87.8293,2.15,5.04,1111122 
DISL,ioos:station:DISL:BSCA:1,2011-06-05T17:00:00Z,30.3288,-87.8293,2.159,4.91,1111122 
DISL,ioos:station:DISL:BSCA:1,2011-06-05T17:30:00Z,30.3288,-87.8293,2.154,5.2,1111122 
DISL,ioos:station:DISL:BSCA:1,2011-06-05T18:00:00Z,30.3288,-87.8293,2.166,5.44,1111122 
DISL,ioos:station:DISL:BSCA:1,2011-06-05T18:30:00Z,30.3288,-87.8293,2.169,5.36,1111122 
DISL,ioos:station:DISL:BSCA:1,2011-06-05T19:00:00Z,30.3288,-87.8293,2.18,5.6,1111122 
DISL,ioos:station:DISL:BSCA:1,2011-06-05T19:30:00Z,30.3288,-87.8293,2.154,5.31,1111122 
DISL,ioos:station:DISL:BSCA:1,2011-06-05T20:00:00Z,30.3288,-87.8293,2.111,5.74,1111122 
DISL,ioos:station:DISL:BSCA:1,2011-06-05T20:30:00Z,30.3288,-87.8293,2.083,3.82,1111122 
DISL,ioos:station:DISL:BSCA:1,2011-06-05T21:00:00Z,30.3288,-87.8293,2.083,5.66,1111122 
DISL,ioos:station:DISL:BSCA:1,2011-06-05T21:30:00Z,30.3288,-87.8293,2.058,5.66,1111122 
DISL,ioos:station:DISL:BSCA:1,2011-06-05T22:00:00Z,30.3288,-87.8293,2.064,5.28,1111122 
DISL,ioos:station:DISL:BSCA:1,2011-06-05T22:30:00Z,30.3288,-87.8293,1.983,5.2,1111122 
DISL,ioos:station:DISL:BSCA:1,2011-06-05T23:00:00Z,30.3288,-87.8293,1.976,5.95,1111122 
DISL,ioos:station:DISL:BSCA:1,2011-06-05T23:30:00Z,30.3288,-87.8293,1.93,5.78,1111122 
DISL,ioos:station:DISL:BSCA:1,2011-06-06T00:00:00Z,30.3288,-87.8293,1.879,5.78,1111122 
DISL,ioos:station:DISL:BSCA:1,2011-06-06T00:30:00Z,30.3288,-87.8293,1.86,5.24,1111122 
DISL,ioos:station:DISL:BSCA:1,2011-06-06T01:00:00Z,30.3288,-87.8293,1.821,5.76,1111122 
DISL,ioos:station:DISL:BSCA:1,2011-06-06T01:30:00Z,30.3288,-87.8293,1.781,5.78,1111122 
DISL,ioos:station:DISL:BSCA:1,2011-06-06T02:00:00Z,30.3288,-87.8293,1.756,5.37,1111122 
DISL,ioos:station:DISL:BSCA:1,2011-06-06T02:30:00Z,30.3288,-87.8293,1.742,3.96,1111122 
DISL,ioos:station:DISL:BSCA:1,2011-06-06T03:00:00Z,30.3288,-87.8293,1.729,4.46,1111122 
DISL,ioos:station:DISL:BSCA:1,2011-06-06T03:30:00Z,30.3288,-87.8293,1.71,4.07,1111122 
DISL,ioos:station:DISL:BSCA:1,2011-06-06T04:00:00Z,30.3288,-87.8293,1.696,4.77,1111122 
DISL,ioos:station:DISL:BSCA:1,2011-06-06T04:30:00Z,30.3288,-87.8293,1.682,4.93,1111122 
DISL,ioos:station:DISL:BSCA:1,2011-06-06T05:00:00Z,30.3288,-87.8293,1.679,4.43,1111122 
DISL,ioos:station:DISL:BSCA:1,2011-06-06T05:30:00Z,30.3288,-87.8293,1.68,4.98,1111122 
DISL,ioos:station:DISL:BSCA:1,2011-06-06T06:00:00Z,30.3288,-87.8293,1.685,4.85,1111122 
DISL,ioos:station:DISL:BSCA:1,2011-06-06T06:30:00Z,30.3288,-87.8293,1.683,4.68,1111122 
DISL,ioos:station:DISL:BSCA:1,2011-06-06T07:00:00Z,30.3288,-87.8293,1.707,4.78,1111122 
DISL,ioos:station:DISL:BSCA:1,2011-06-06T07:30:00Z,30.3288,-87.8293,1.72,4.84,1111122 
DISL,ioos:station:DISL:BSCA:1,2011-06-06T08:00:00Z,30.3288,-87.8293,1.749,4.83,1111122 
DISL,ioos:station:DISL:BSCA:1,2011-06-06T08:30:00Z,30.3288,-87.8293,1.754,4.7,1111122 
DISL,ioos:station:DISL:BSCA:1,2011-06-06T09:00:00Z,30.3288,-87.8293,1.779,4.65,1111122 
DISL,ioos:station:DISL:BSCA:1,2011-06-06T09:30:00Z,30.3288,-87.8293,1.804,4.59,1111122 
DISL,ioos:station:DISL:BSCA:1,2011-06-06T10:00:00Z,30.3288,-87.8293,1.815,4.64,1111122 
DISL,ioos:station:DISL:BSCA:1,2011-06-06T10:30:00Z,30.3288,-87.8293,1.844,4.47,1111122 
DISL,ioos:station:DISL:BSCA:1,2011-06-06T11:00:00Z,30.3288,-87.8293,1.866,4.5,1111122 
DISL,ioos:station:DISL:BSCA:1,2011-06-06T11:30:00Z,30.3288,-87.8293,1.89,4.67,1111122 
DISL,ioos:station:DISL:BSCA:1,2011-06-06T12:00:00Z,30.3288,-87.8293,1.924,4.7,1111122 
DISL,ioos:station:DISL:BSCA:1,2011-06-06T12:30:00Z,30.3288,-87.8293,1.935,4.79,1111122 
DISL,ioos:station:DISL:BSCA:1,2011-06-06T13:00:00Z,30.3288,-87.8293,1.952,4.51,1111122 
DISL,ioos:station:DISL:BSCA:1,2011-06-06T13:30:00Z,30.3288,-87.8293,1.974,4.39,1111122 
DISL,ioos:station:DISL:BSCA:1,2011-06-06T14:00:00Z,30.3288,-87.8293,1.995,4.35,1111122 
DISL,ioos:station:DISL:BSCA:1,2011-06-06T14:30:00Z,30.3288,-87.8293,2.015,4.16,1111122 
DISL,ioos:station:DISL:BSCA:1,2011-06-06T15:00:00Z,30.3288,-87.8293,2.032,4.36,1111122 
DISL,ioos:station:DISL:BSCA:1,2011-06-06T15:30:00Z,30.3288,-87.8293,2.064,4.06,1111122 